Port Angeles, WA

8:04 PM PST on February 19, 2017 (GMT -0800)
Fairchild International

Weather History for KCLM - April, 2014

Change the Weather History Date:

Wednesday, April 9, 2014

  Actual Average Record
Temperature  
Mean Temperature 47 °F -  
Max Temperature 53 °F 53 °F 65 °F (1959)
Min Temperature 41 °F 38 °F 28 °F (1988)
Degree Days  
Heating Degree Days 18    
Moisture  
Dew Point 37 °F    
Average Humidity 69    
Maximum Humidity 82    
Minimum Humidity 59    
Precipitation  
Precipitation 0.00 in - - ()
Sea Level Pressure  
Sea Level Pressure 30.25 in    
Wind  
Wind Speed 11 mph (West)    
Max Wind Speed 14 mph    
Max Gust Speed 23 mph    
Visibility 10 miles    
Events      
Averages and records for this station are not official NWS values.
T = Trace of Precipitation, MM = Missing Value Source: NWS Daily Summary

Daily Weather History Graph

Daily Weather History Graph

Search for Another Location

Airport or City:

Trip Planner

Search our weather history database for the weather conditions in past years. The results will help you decide how hot, cold, wet, or windy it might be!

Date:

Astronomy

Apr. 09, 2014 Rise Set
Actual Time 6:35 AM PDT 7:56 PM PDT
Civil Twilight 6:03 AM PDT 8:28 PM PDT
Nautical Twilight 5:24 AM PDT 9:07 PM PDT
Astronomical Twilight 4:43 AM PDT 9:49 PM PDT
Moon 2:27 PM PDT (4/9) 3:51 AM PDT (4/9)
Length of Visible Light 14h 24m
Length of Day
13h 20m
Waxing Gibbous, 72% of the Moon is Illuminated
Apr 9
Waxing Gibbous
Apr 15
Full
Apr 22
Last Quarter
Apr 28
New
May 6
First Quarter

Hourly Weather History & Observations

Time (PDT) Temp. Windchill Dew Point Humidity Pressure Visibility Wind Dir Wind Speed Gust Speed Precip Events Conditions
12:53 AM 44.1 °F 37.7 °F 37.9 °F 79% 30.18 in 10.0 mi West 12.7 mph - 0.00 in   Mostly Cloudy
1:53 AM 43.0 °F 36.8 °F 37.0 °F 80% 30.20 in 10.0 mi West 11.5 mph - N/A   Clear
2:53 AM 42.1 °F 37.1 °F 37.0 °F 82% 30.22 in 10.0 mi West 8.1 mph - N/A   Clear
3:53 AM 42.1 °F 35.2 °F 36.0 °F 79% 30.23 in 10.0 mi West 12.7 mph - N/A   Clear
4:53 AM 41.0 °F 33.9 °F 35.1 °F 79% 30.22 in 10.0 mi WSW 12.7 mph - N/A   Clear
5:53 AM 41.0 °F 34.3 °F 34.0 °F 76% 30.22 in 10.0 mi WSW 11.5 mph - N/A   Clear
6:53 AM 42.1 °F 36.1 °F 33.1 °F 70% 30.23 in 10.0 mi WSW 10.4 mph - N/A   Clear
7:53 AM 42.1 °F 36.6 °F 33.1 °F 70% 30.25 in 10.0 mi WSW 9.2 mph - N/A   Clear
8:53 AM 46.0 °F 41.4 °F 34.0 °F 63% 30.25 in 10.0 mi WSW 9.2 mph - N/A   Clear
9:53 AM 50.0 °F - 36.0 °F 59% 30.26 in 10.0 mi Variable 6.9 mph - N/A   Scattered Clouds
10:53 AM 51.1 °F - 37.9 °F 61% 30.27 in 10.0 mi WNW 10.4 mph 18.4 mph N/A   Partly Cloudy
11:53 AM 51.1 °F - 37.9 °F 61% 30.27 in 10.0 mi NW 11.5 mph 23.0 mph N/A   Clear
12:53 PM 52.0 °F - 39.0 °F 61% 30.27 in 10.0 mi NNW 11.5 mph 19.6 mph N/A   Clear
1:53 PM 51.1 °F - 37.9 °F 61% 30.28 in 10.0 mi NW 12.7 mph 20.7 mph N/A   Clear
2:53 PM 51.1 °F - 37.0 °F 59% 30.27 in 10.0 mi NW 12.7 mph 20.7 mph N/A   Clear
3:53 PM 53.1 °F - 39.9 °F 61% 30.27 in 10.0 mi NW 11.5 mph 21.9 mph N/A   Clear
4:53 PM 51.1 °F - 37.9 °F 61% 30.27 in 10.0 mi NW 11.5 mph - N/A   Partly Cloudy
5:53 PM 50.0 °F - 39.0 °F 66% 30.26 in 10.0 mi NW 10.4 mph - N/A   Clear
6:53 PM 48.9 °F - 39.0 °F 69% 30.26 in 10.0 mi WNW 13.8 mph - N/A   Partly Cloudy
7:53 PM 46.9 °F - 37.9 °F 71% 30.25 in 10.0 mi WNW 11.5 mph - N/A   Clear
8:53 PM 45.0 °F 40.1 °F 37.9 °F 76% 30.25 in 10.0 mi West 9.2 mph - N/A   Clear
9:53 PM 44.1 °F 37.4 °F 36.0 °F 73% 30.27 in 10.0 mi West 13.8 mph - N/A   Clear
10:53 PM 44.1 °F 38.1 °F 35.1 °F 71% 30.25 in 10.0 mi West 11.5 mph - N/A   Clear
11:53 PM 44.1 °F 38.1 °F 35.1 °F 71% 30.27 in 10.0 mi West 11.5 mph - N/A   Clear